Flag for Germany Weather past 2 weeks in Achim, Lower Saxony, Germany

Now
30 °F

Clear.


Feels Like: 21 °F
Forecast: 25 / 34 °F
Wind: 12 mph from Southeast

Location: Bremen Airport

Current Time: Dec 27, 2014 at 7:05:21 AM

Latest Report: Dec 27, 2014 at 6:20 AM


Visibility: 10 mi

Pressure: 29.83 "Hg

Humidity: 93%

Dew point: 28 °F

Location of AchimLocation

Historic Weather in Achim — Graph

°F

Achim temperature yesterday

Maximum temperature yesterday: 36 °F (at 1:50 PM)
Minimum temperature yesterday: 25 °F (at 7:50 AM)
Average temperature yesterday: 31 °F

Past Weeks' High & Low Weather Summary

 TemperatureHumidityPressure
High54 °F (Dec 18, 3:50 PM)100% (Dec 12, 5:20 AM)30.36 "Hg (Dec 12, 5:20 AM)
Low25 °F (Dec 26, 7:50 AM)61% (Dec 25, 1:20 PM)29.24 "Hg (Dec 12, 11:50 AM)
Average43 °F89%29.85 "Hg
* Reported Dec 12 5:20 AM — Dec 27 5:50 AM, Achim, Weather by CustomWeather, © 2014

Note: Actual official high and low records may vary slightly from our data, if they occured in-between our weather recording intervals... More about our weather records

Advertising

Achim weather history for previous 24 hours

 ConditionsComfort  
Time TempWeatherWind HumidityBarometerVisibility
5:50 AM
Dec 27
30 °FPassing clouds.12 mph93%29.86 "HgN/A
5:20 AM30 °FPassing clouds.12 mph100%29.86 "Hg5 mi
4:20 AM32 °FClear.10 mph93%29.92 "Hg4 mi
3:50 AM32 °FPassing clouds.10 mph93%29.95 "Hg4 mi
3:20 AM32 °FIce fog.9 mph100%29.98 "Hg3 mi
2:50 AM34 °FFog.6 mph93%30.01 "Hg2 mi
2:20 AM32 °FIce fog.7 mph100%30.01 "Hg2 mi
1:50 AM32 °FIce fog.7 mph100%30.04 "Hg2 mi
1:20 AM32 °FPassing clouds.8 mph93%30.04 "Hg4 mi
12:50 AM32 °FPassing clouds.7 mph93%30.07 "Hg6 mi
12:20 AM32 °FPassing clouds.7 mph93%30.09 "HgN/A
11:50 PM
Dec 26
32 °FPassing clouds.6 mph93%30.12 "HgN/A
11:20 PM32 °FPassing clouds.8 mph93%30.12 "HgN/A
10:20 PM32 °FPassing clouds.8 mph93%30.15 "HgN/A
9:50 PM32 °FPassing clouds.7 mph100%30.18 "HgN/A
9:20 PM34 °FPassing clouds.3 mph93%30.18 "HgN/A
8:50 PM34 °FPassing clouds.3 mph93%30.21 "HgN/A
8:20 PM34 °FPassing clouds.5 mph93%30.21 "HgN/A
7:50 PM32 °FPassing clouds.7 mph100%30.24 "HgN/A
7:20 PM32 °FPassing clouds.7 mph100%30.24 "Hg5 mi
6:50 PM32 °FPassing clouds.7 mph100%30.27 "Hg6 mi
6:20 PM32 °FPassing clouds.7 mph93%30.27 "HgN/A
5:20 PM30 °FIce fog.9 mph100%30.30 "Hg1 mi
4:20 PM30 °FPassing clouds.10 mph93%30.30 "Hg4 mi
3:50 PM34 °FSunny.6 mph81%30.30 "Hg10 mi
3:20 PM36 °FSunny.3 mph75%30.30 "Hg10 mi
2:50 PM36 °FSunny.6 mph75%30.30 "Hg10 mi
2:20 PM36 °FSunny.6 mph75%30.33 "Hg10 mi
1:50 PM36 °FSunny.5 mph81%30.33 "Hg10 mi
1:20 PM34 °FPassing clouds.3 mph87%30.33 "HgN/A
12:50 PM34 °FSunny.3 mph87%30.36 "Hg10 mi
12:20 PM34 °FSunny.2 mph87%30.36 "Hg10 mi
11:50 AM32 °FSunny.2 mph93%30.36 "Hg10 mi
11:20 AM32 °FSunny.2 mph100%30.36 "Hg10 mi
10:50 AM30 °FSunny.3 mph100%30.36 "Hg10 mi
10:20 AM30 °FSunny.1 mph100%30.36 "Hg10 mi
9:50 AM30 °FSunny.2 mph93%30.36 "Hg10 mi
9:20 AM28 °FSunny.3 mph100%30.36 "Hg10 mi
8:50 AM27 °FSunny.2 mph100%30.36 "Hg10 mi
8:20 AM27 °FClear.2 mph100%30.36 "Hg10 mi
7:50 AM25 °FClear.1 mph100%30.36 "Hg10 mi
7:20 AM28 °FClear.2 mph93%30.33 "Hg10 mi
Weather by CustomWeather, © 2014

See weather overviewHow to use our weather pages